TimeEDT,TemperatureF,Dew PointF,Humidity,Sea Level PressureIn,VisibilityMPH,Wind Direction,Wind SpeedMPH,Gust SpeedMPH,PrecipitationIn,Events,Conditions,WindDirDegrees,DateUTC
12:15 AM,64.2,53.1,67,30.10,10.0,Calm,Calm,-,N/A,,Clear,0,2013-05-03 04:15:00
12:35 AM,59.4,53.2,80,30.10,10.0,WNW,5.8,-,N/A,,Mostly Cloudy,290,2013-05-03 04:35:00
12:55 AM,56.7,53.1,88,30.10,10.0,NW,4.6,-,N/A,,Overcast,310,2013-05-03 04:55:00
1:15 AM,56.1,52.0,86,30.10,10.0,NW,4.6,-,N/A,,Scattered Clouds,310,2013-05-03 05:15:00
1:34 AM,53.1,50.2,90,30.09,10.0,NW,4.6,-,N/A,,Clear,310,2013-05-03 05:34:00
1:55 AM,54.5,51.1,88,30.09,10.0,Calm,Calm,-,N/A,,Scattered Clouds,0,2013-05-03 05:55:00
2:15 AM,54.5,51.3,89,30.08,10.0,NW,3.5,-,N/A,,Overcast,320,2013-05-03 06:15:00
2:34 AM,54.3,51.1,89,30.08,10.0,NNW,3.5,-,N/A,,Mostly Cloudy,330,2013-05-03 06:34:00
2:55 AM,53.8,50.9,90,30.07,10.0,Calm,Calm,-,N/A,,Scattered Clouds,0,2013-05-03 06:55:00
3:15 AM,53.2,50.9,92,30.07,10.0,North,3.5,-,N/A,,Clear,10,2013-05-03 07:15:00
3:34 AM,53.1,51.1,93,30.06,10.0,Calm,Calm,-,N/A,,Scattered Clouds,0,2013-05-03 07:34:00
4:15 AM,56.8,52.5,85,30.06,10.0,ESE,4.6,-,N/A,,Mostly Cloudy,110,2013-05-03 08:15:00
4:35 AM,58.3,51.8,79,30.06,10.0,ESE,4.6,-,N/A,,Scattered Clouds,110,2013-05-03 08:35:00
4:55 AM,58.3,51.8,79,30.06,10.0,ESE,4.6,-,N/A,,Clear,110,2013-05-03 08:55:00
5:14 AM,58.1,51.8,80,30.06,10.0,ESE,3.5,-,N/A,,Clear,110,2013-05-03 09:14:00
5:35 AM,57.6,51.8,81,30.05,10.0,ESE,3.5,-,N/A,,Clear,110,2013-05-03 09:35:00
5:55 AM,57.2,51.8,82,30.05,10.0,ESE,3.5,-,N/A,,Clear,110,2013-05-03 09:55:00
6:14 AM,57.0,52.0,83,30.05,10.0,ESE,4.6,-,N/A,,Clear,110,2013-05-03 10:14:00
6:35 AM,58.1,52.7,82,30.06,10.0,ESE,4.6,-,N/A,,Clear,120,2013-05-03 10:35:00
6:55 AM,58.5,53.1,82,30.06,10.0,ESE,4.6,-,N/A,,Clear,110,2013-05-03 10:55:00
7:14 AM,59.0,53.6,82,30.06,10.0,ESE,4.6,-,N/A,,Clear,110,2013-05-03 11:14:00
7:35 AM,59.4,54.0,82,30.07,10.0,ESE,4.6,-,N/A,,Clear,120,2013-05-03 11:35:00
7:55 AM,60.3,54.5,81,30.07,10.0,ESE,3.5,-,N/A,,Clear,120,2013-05-03 11:55:00
8:14 AM,61.5,55.0,79,30.07,10.0,ESE,3.5,-,N/A,,Clear,110,2013-05-03 12:14:00
8:35 AM,62.8,55.8,78,30.06,10.0,ESE,3.5,-,N/A,,Clear,110,2013-05-03 12:35:00
8:54 AM,65.1,56.5,74,30.06,10.0,ESE,3.5,-,N/A,,Clear,110,2013-05-03 12:54:00
9:15 AM,67.8,57.0,68,30.06,10.0,SE,8.1,-,N/A,,Clear,140,2013-05-03 13:15:00
9:35 AM,68.4,57.0,67,30.06,10.0,SSE,8.1,-,N/A,,Clear,160,2013-05-03 13:35:00
9:54 AM,69.4,57.6,66,30.06,10.0,ESE,8.1,-,N/A,,Clear,120,2013-05-03 13:54:00
10:15 AM,70.2,57.6,64,30.05,10.0,ESE,9.2,-,N/A,,Clear,120,2013-05-03 14:15:00
10:35 AM,70.5,57.7,64,30.05,10.0,SSE,6.9,-,N/A,,Clear,160,2013-05-03 14:35:00
10:55 AM,71.2,57.7,62,30.05,10.0,SE,6.9,-,N/A,,Clear,130,2013-05-03 14:55:00
11:15 AM,72.0,57.7,61,30.04,10.0,SSE,8.1,-,N/A,,Clear,150,2013-05-03 15:15:00
11:34 AM,73.4,58.1,59,30.04,10.0,SE,6.9,-,N/A,,Scattered Clouds,130,2013-05-03 15:34:00
11:55 AM,74.3,57.9,57,30.04,10.0,SE,6.9,-,N/A,,Scattered Clouds,140,2013-05-03 15:55:00
12:15 PM,75.6,58.1,55,30.04,10.0,SE,6.9,-,N/A,,Scattered Clouds,140,2013-05-03 16:15:00
12:34 PM,76.1,58.8,55,30.03,10.0,SSE,9.2,-,N/A,,Scattered Clouds,150,2013-05-03 16:34:00
12:55 PM,76.3,58.3,54,30.02,10.0,SSE,12.7,20.7,N/A,,Scattered Clouds,150,2013-05-03 16:55:00
1:15 PM,75.2,57.7,54,30.02,10.0,SE,15.0,18.4,N/A,,Mostly Cloudy,130,2013-05-03 17:15:00
1:34 PM,76.5,58.1,53,30.02,10.0,SE,15.0,25.3,N/A,,Mostly Cloudy,140,2013-05-03 17:34:00
1:55 PM,76.1,57.7,53,30.02,10.0,South,15.0,19.6,N/A,,Scattered Clouds,170,2013-05-03 17:55:00
2:15 PM,75.2,56.7,52,30.02,10.0,SE,10.4,17.3,N/A,,Mostly Cloudy,140,2013-05-03 18:15:00
2:34 PM,75.7,55.2,49,30.01,10.0,SE,12.7,19.6,N/A,,Mostly Cloudy,140,2013-05-03 18:34:00
2:55 PM,75.9,54.7,48,30.01,10.0,South,15.0,23.0,N/A,,Mostly Cloudy,170,2013-05-03 18:55:00
3:14 PM,76.1,55.4,49,30.01,10.0,SE,13.8,25.3,N/A,,Scattered Clouds,140,2013-05-03 19:14:00
3:35 PM,76.1,55.2,48,30.00,10.0,SSE,12.7,-,N/A,,Clear,160,2013-05-03 19:35:00
3:55 PM,75.4,54.1,48,30.00,10.0,SE,12.7,20.7,N/A,,Scattered Clouds,140,2013-05-03 19:55:00
4:14 PM,75.7,54.3,47,30.00,10.0,SSE,12.7,18.4,N/A,,Scattered Clouds,150,2013-05-03 20:14:00
4:35 PM,75.6,53.2,46,29.99,10.0,SE,12.7,18.4,N/A,,Clear,140,2013-05-03 20:35:00
4:55 PM,75.6,53.1,45,29.99,10.0,ESE,16.1,23.0,N/A,,Clear,120,2013-05-03 20:55:00
5:15 PM,75.2,51.8,44,29.98,10.0,SE,16.1,21.9,N/A,,Scattered Clouds,130,2013-05-03 21:15:00
5:35 PM,75.2,52.0,44,29.98,10.0,SE,13.8,20.7,N/A,,Scattered Clouds,140,2013-05-03 21:35:00
5:54 PM,75.4,52.0,44,29.98,10.0,ESE,13.8,19.6,N/A,,Scattered Clouds,120,2013-05-03 21:54:00
6:15 PM,75.4,50.7,42,29.98,10.0,ESE,15.0,20.7,N/A,,Clear,120,2013-05-03 22:15:00
6:35 PM,74.7,50.0,42,29.98,10.0,SE,13.8,18.4,N/A,,Clear,130,2013-05-03 22:35:00
6:54 PM,74.3,48.9,41,29.98,10.0,SE,11.5,23.0,N/A,,Clear,130,2013-05-03 22:54:00
7:15 PM,73.9,48.7,41,29.98,10.0,ESE,11.5,18.4,N/A,,Clear,120,2013-05-03 23:15:00
7:35 PM,73.6,46.9,39,29.98,10.0,SE,11.5,16.1,N/A,,Clear,130,2013-05-03 23:35:00
7:54 PM,72.9,45.5,38,29.99,10.0,ESE,9.2,-,N/A,,Clear,120,2013-05-03 23:54:00
8:15 PM,72.1,44.8,37,30.00,10.0,ESE,8.1,-,N/A,,Clear,110,2013-05-04 00:15:00
8:34 PM,70.9,44.1,38,30.00,10.0,East,6.9,-,N/A,,Scattered Clouds,100,2013-05-04 00:34:00
8:55 PM,69.6,43.2,38,30.00,10.0,East,5.8,-,N/A,,Clear,100,2013-05-04 00:55:00
9:15 PM,68.9,43.0,39,30.01,10.0,East,5.8,-,N/A,,Clear,100,2013-05-04 01:15:00
9:34 PM,66.7,43.7,43,30.01,10.0,East,5.8,-,N/A,,Clear,90,2013-05-04 01:34:00
9:55 PM,65.7,44.4,46,30.01,10.0,East,8.1,-,N/A,,Clear,80,2013-05-04 01:55:00
10:15 PM,65.5,45.3,48,30.01,10.0,East,8.1,-,N/A,,Clear,80,2013-05-04 02:15:00
10:34 PM,65.5,44.2,46,30.01,10.0,East,9.2,-,N/A,,Clear,90,2013-05-04 02:34:00
10:55 PM,65.5,43.9,46,30.01,10.0,East,9.2,-,N/A,,Clear,90,2013-05-04 02:55:00
11:15 PM,64.9,43.9,46,30.01,10.0,East,8.1,-,N/A,,Clear,90,2013-05-04 03:15:00
11:35 PM,64.0,44.1,48,30.01,10.0,East,5.8,-,N/A,,Clear,90,2013-05-04 03:35:00
11:55 PM,62.8,44.1,50,30.02,10.0,East,8.1,-,N/A,,Clear,100,2013-05-04 03:55:00